SCTESCBA

Guest
Details From SCTE - El Tepual
To SCBA - Balmaceda
Flight Number -
Tags generated
Created
Modified
Stats Distance 276 nm / 512 km
Max Altitude 31,400 ft / 9,571 m
Waypoints 4
Social Downloads 4
Likes 0
Share VATSIM

Download

Looking for another format? Having issues loading an existing format? Contact us
Advertisement - Login to hide

Notes

Basic altitude profile: - Ascent Rate: 2500ft/min - Ascent Speed: 250kts - Cruise Altitude: 35000ft - Cruise Speed: 420kts - Descent Rate: 1500ft/min - Descent Speed: 250kts Options: - Use NATs: yes - Use PACOTS: yes - Use low airways: yes - Use high airways: yes

Route

SCTE TEN G550 BALNB SCBA

ID Type Via Altitude Latitude Longitude Leg Dist Tot Dist Heading (true) Name
O SCTE APT - 0 ft / 0 m -41.43888˚ -73.09395˚ - 0 nm - El Tepual
TEN NDB - 31,400 ft / 9,571 m -42.92472˚ -72.71528˚ 90 nm 90 nm 169° / 169° CHAITEN NDB
BALNB FIX G550 (AWY-LO) 11,000 ft / 3,353 m -45.91944˚ -71.69833˚ 185 nm 275 nm 167° / 166° -
O SCBA APT - 0 ft / 0 m -45.91602˚ -71.68947˚ 0 nm 276 nm 61° / 61° Balmaceda

Altitude Profile

Advertisement - Login to hide

Weather


0- 5 10 15 20 25 30 35+ Temperature / ° C

Clouds and Precipitation
Forecast for 2018-05-24 00:00 UTC. Updated 5 hours ago

Ground ~20,000 ft ~40,000 ft Winds

SCTE

Details ICAO SCTE (PMC)
Name El Tepual
Region Chile
Timezone America/Santiago (UTC-4.0)
Stats Elevation 293 ft / 89 m (AMSL)
Location -41.438884° -73.093954°
Runways 1
Magnetic Variation 8.437° E

METAR

SCTE 240400Z 28005KT 8000 BKN070 09/07 Q1020 NOSIG

Decode

TAF

TAF SCTE 232238Z 2400/2500 VRB02KT 9999 SCT070 TN04/2410Z TX14/2418Z TEMPO 2403/2411 2000 BR SCT004 BKN080 BECMG 2412/2414 01005KT 8000 BKN050 BKN070 BECMG 2416/2418 36010KT 9999 BKN040

Decode

Departure Runways

ID Width Length Bearing (true) Bearing (mag) Surface Threshold Offset Overrun Length
17 148 ft / 45 m 8,702 ft / 2,652 m 172.00° 163.56° Concrete 0 ft / 0 m 0 ft / 0 m
35 148 ft / 45 m 8,702 ft / 2,652 m 352.00° 343.56° Concrete 0 ft / 0 m 0 ft / 0 m

SCBA

Details ICAO SCBA (BBA)
Name Balmaceda
Region Chile
Timezone America/Santiago (UTC-4.0)
Stats Elevation 1,654 ft / 504 m (AMSL)
Location -45.916025° -71.689470°
Runways 1
Magnetic Variation 9.843° E

METAR

SCBA 240400Z AUTO 30007KT 9999 SCT046 BKN049 BKN200 08/06 Q1014

Decode

TAF

TAF SCBA 232240Z 2400/2500 32015KT 9999 SCT030 BKN100 TN04/2410Z TX09/2418Z BECMG 2406/2408 8000 -SHRA BKN020 BKN060 TEMPO 2407/2411 5000 -RA BKN015 BKN030

Decode

Destination Runways

ID Width Length Bearing (true) Bearing (mag) Surface Threshold Offset Overrun Length
09 148 ft / 45 m 8,213 ft / 2,503 m 89.01° 79.17° Asphalt 0 ft / 0 m 180 ft / 55 m
27 148 ft / 45 m 8,213 ft / 2,503 m 268.99° 259.15° Asphalt 0 ft / 0 m 190 ft / 58 m

Popular Alternatives